Погода Закаталы

Погода Закаталы : погода сейчас, прогноз погоды и архив. Всё, что Вы хотите узнать о погоде Закаталы!

Поиск расширенной информации на нашем сайте:

Полезная информация: Институт социального образования в Воронеже.

Другие новости

Новости СМИ2

Главная страница сайта

Новости сайта

02.10.2013

Напоминаем, что на нашем новом сайте вы можете получить высокодетализированные прогнозы погоды по пунктам России, СНГ и мира (включающие важные для авиации метеовеличины, такие как направление и скорость ветра, видимость, явления погоды, количество и форма облачности, нижняя и верхняя граница облачности), а также ознакомиться с разнообразными материалами по авиационной метеорологии и подборкой полезных ссылок на эту тему.

Сайт Метеоцентр.Азия посвящён разработке технологий оптимизации авиаметеорологического обслуживания, включая проектирование и перспективное создание нескольких автоматизированных авиаметеорологических систем:
- система выпуска высокодетальных прогностических карт явлений погоды для нижнего воздушного пространства по России и ближнему зарубежью;
- система верификации прогнозов TAF (выпускаемых синоптиками официальных АМСГ РФ и ближнего зарубежья) и AUTOTAF (выпускаемых сайтом Метеоцентр.Азия) - выявление ошибок, онлайн-сопоставление с фактической погодой METAR, автоматическое внесение коррективов в прогнозы при резком отклонении фактической погоды от прогноза, подсчёт оправдываемости прогнозов по элементам и в целом;
- система обработки, анализа и отображения авиаметеорологической информации для применения провайдерами метеорологической информации.

Рекомендуем: Искусственный камень акриловый камень.

Погода Закаталы - сегодня

Время (UTC), дата Ветер
(°,м/с) 
Видим.   Явления Облачность Т
(°С)
Тd
(°С)
f(%) Тe
(°С)
Pmin
(гПа)
dP
(гПа)
Po
(мм)
O2
(г/м3)
Тmin Tmax R s Состояние
почвы
06 16.02.17 050 (СВ) 20000 м    ясно средняя 
[Ac und]
-0.2 -2 88 -1  1022.7  1.4  722  291           
09 16.02.17 250 (З) 20000 м    5/5 1000 м средняя 
[Cu med, cong|Ac und]
+4.3 -11.4 31 +4  1021.9  0.2  722  287           
12 16.02.17 270 (З) 20000 м    8/8 1000 м средняя 
[Sc|Ac und]
+4.5 -11 31 +4  1020.5  -1.3  721  287           
15 16.02.17 230 (ЮЗ) 4000 м  слаб. снег  10/10 600 м 
[Cu med, cong]
+0.9 -3.3 73 1023.5  2.2  722  290           
18 16.02.17 050 (СВ) 4000 м    10/10 600 м 
[Sc]
-0.1 -3.5 78 -1  1026  1.9  724  292    +5       
21 16.02.17 180 (Ю) 4000 м    10/10 600 м 
[Sc|Ac und]
-1.1 -4.6 77 -2  1026  724  293           
00 17.02.17 180 (Ю) 4000 м    10/10 600 м 
[Sc]
-2.1 -5.1 80 -3  1027.4  1.1  725  295           
03 17.02.17 090 (В) 4000 м  в посл. час снег  10/10 600 м 
[Sc]
-2.7 -4.7 86 -4  1028.6  0.9  725  296           
06 17.02.17 180 (Ю) 10 км    8/8 1000 м средняя 
[Sc|Ac und]
-1.6 -3.8 85 -3  1031.4  728  295           
09 17.02.17 200 (Ю) 10 км    9/9 1000 м средняя 
[Sc|Ac und]
-1 -2.2 92 -2  1031.5  0.2  728  295           
12 17.02.17 160 (Ю) 10 км    9/9 1000 м средняя 
[Sc|Ac und]
+0.3 -1.1 90 1030.7  -0.4  728  293           
18 17.02.17 160 (Ю) 20000 м    3/0 средняя 
[Ac und]
-3.7 -4.7 93 -5  1035.4  2.3  730  299    +1.1       
21 17.02.17 050 (СВ) 4000 м    10/10 600 м 
[Sc]
-3.5 -4.9 90 -5  1035.7  0.4  730  299           
00 18.02.17 020 (С) 20000 м    5/5 1000 м средняя 
[Sc|Ac und]
-1.1 -5.5 72 -2  1037.8  1.7  732  297           
03 18.02.17 050 (СВ) 20000 м    ясно 
-5.6 -6.7 92 -7  1038  -0.1  732  302           
06 18.02.17 360 (С) 20000 м    ясно 
-2.4 -4.4 86 -3  1038.6  1.4  733  298           
09 18.02.17 200 (Ю) 20000 м    1/0 средняя 
[Ac und]
+2.2 -0.6 82 +2  1036.4  -1  732  293           
12 18.02.17 250 (З) 20000 м    1/0 средняя 
[Ac und]
+4.1 -7.5 43 +4  1029.1  -1.7  727  289           
15 18.02.17 200 (Ю) 20000 м    1/0 средняя 
[Ac und]
+1.9 -3.4 68 +1  1034.9  731  293           
18 18.02.17 360 (С) 20000 м    ясно 
-0.8 -4.7 75 -2  1035.4  731  296    +4.6       
21 18.02.17 050 (СВ) 20000 м    ясно 
-1.2 -4.1 81 -2  1035.6  731  296           
00 19.02.17 090 (В) 20000 м    3/0 средняя 
[Ac und]
-1.5 -3.4 87 -2  1035.4  -0.2  730  296           
03 19.02.17 050 (СВ) 20000 м    4/0 средняя 
[Ac und]
-1.9 -3.8 87 -3  1035.3  -0.2  730  297           
09 19.02.17 230 (ЮЗ) 20000 м    ясно 
+8.4 -4.1 41 +8  1032.9  730  286           
12 19.02.17 210 (ЮЗ) 20000 м    ясно 
+12.2 -6.4 27 +13  1030.5  -1.6  729  282           
Время (UTC), дата Ветер
(°,м/с) 
Видим.   Явления Облачность Т
(°С)
Тd
(°С)
f(%) Тe
(°С)
Pmin
(гПа)
dP
(гПа)
Po
(мм)
O2
(г/м3)
Тmin Tmax R s Состояние
почвы

Для получения пояснительной информации подведите курсор к названию столбца.

ПОГОДА Закаталы - архив

Всё, что Вы хотите узнать о погоде Закаталы - удобно и подробно!

Выберите нужную дату (начиная с 1 января 2015* года) и нажмите кнопку "Найти".
Будут отображены архивные сводки погоды по пункту Закаталы, начиная с указанной даты.


Отображать данные в формате CSV (для использования в таблицах Excel)


Внимание! Наш архив погоды предназначен исключительно для личного некоммерческого использования в познавательных целях. Если Вам необходимы официальные справки о состоянии погоды (для производственных, юридических, коммерческих и т.п. целей), обращайтесь в органы Росгидромета.

*Примечание: данная дата относится к архиву по метеостанциям СССР (Россия, СНГ, Балтия).
Архив по метеостанциям Зарубежной Европы и Азии (кроме Китая) хранится 10 дней, по другим регионам земного шара (Китай, Африка, Америка, Австралия, Океания) - 1 день.

Закаталы - район местоположения метеостанции


Название, широта, долгота, высота метеостанции:
Закаталы 41.6°ш. 46.6°д. 490 м над ур. моря [Азербайджан]

Дополнительная информация

В oтличие oт бoльшинства пoгoдных сайтoв мы публикуем пoдрoбную метеoинфoрмацию в детальнoм прoфессиoнальнoм фoрмате.

Характеристики температуры и влажнoсти вoздуха измеряются на высoте 2 м в тени вдали oт зданий и деревьев.
Скoрoсть ветра измеряется на высoте 10 м (на урoвне рoста челoвека скoрoсть ветра ниже в 1.5-2 раза). Если метеoстанция нахoдится в гoрoде или в лесу, тo скoрoсть ветра занижена на 2-4 м/с пo сравнению с oткрытым местoм. Скoрoсть ветра над акватoриями крупных рек и oзёр, а также на вершинах хoлмoв на 2-5 м/с выше, чем в oбычных услoвиях.
Атмoсфернoе давление в разных тoчках местнoсти мoжет значительнo oтличаться oт давления на метеoстанции, в зависимoсти oт услoвий рельефа (при пoдъёме на 10 м давление пoнижается примернo на 1 мм рт.ст.).